Glasgow, KY

12:49 AM CST on December 14, 2017 (GMT -0600)
Glasgow Municipal

Weather History for KGLW - December, 2013

Change the Weather History Date:

Friday, December 20, 2013

  Actual Average Record
Temperature  
Mean Temperature 58 °F -  
Max Temperature 63 °F 45 °F 64 °F (1971)
Min Temperature 52 °F 29 °F 5 °F (1981)
Degree Days  
Heating Degree Days 8    
Growing Degree Days 8 (Base 50)    
Moisture  
Dew Point 47 °F    
Average Humidity 68    
Maximum Humidity 84    
Minimum Humidity 41    
Precipitation  
Precipitation 0.04 in - - ()
Sea Level Pressure  
Sea Level Pressure 29.98 in    
Wind  
Wind Speed 10 mph (SSW)    
Max Wind Speed 20 mph    
Max Gust Speed 28 mph    
Visibility 10 miles    
Events Rain    
Averages and records for this station are not official NWS values.
T = Trace of Precipitation, MM = Missing Value Source: NWS Daily Summary

Daily Weather History Graph

Daily Weather History Graph

Search for Another Location

Airport or City:

Trip Planner

Search our weather history database for the weather conditions in past years. The results will help you decide how hot, cold, wet, or windy it might be!

Date:

Astronomy

Dec. 20, 2013 Rise Set
Actual Time 6:53 AM CST 4:30 PM CST
Civil Twilight 6:23 AM CST 4:59 PM CST
Nautical Twilight 5:51 AM CST 5:31 PM CST
Astronomical Twilight 5:19 AM CST 6:03 PM CST
Moon 7:46 PM CST (12/20) 8:50 AM CST (12/20)
Length of Visible Light 10h 35m
Length of Day
9h 37m
Waning Gibbous, 90% of the Moon is Illuminated
Dec 20
Waning Gibbous
Dec 25
Last Quarter
Jan 1
New
Jan 7
First Quarter
Jan 15
Full

Hourly Weather History & Observations

Time (CST) Temp. Dew Point Humidity Pressure Visibility Wind Dir Wind Speed Gust Speed Precip Events Conditions
12:15 AM 52.5 °F 30.9 °F 44% 30.02 in 10.0 mi South 9.2 mph - N/A   Mostly Cloudy
12:35 AM 52.3 °F 30.7 °F 44% 30.02 in 10.0 mi South 9.2 mph - N/A   Overcast
12:55 AM 52.2 °F 30.6 °F 44% 30.02 in 10.0 mi South 9.2 mph - N/A   Overcast
1:15 AM 52.5 °F 30.7 °F 43% 30.02 in 10.0 mi South 10.4 mph - N/A   Overcast
1:35 AM 52.7 °F 30.9 °F 43% 30.03 in 10.0 mi South 10.4 mph - N/A   Overcast
1:55 AM 52.9 °F 30.9 °F 43% 30.03 in 10.0 mi South 10.4 mph - N/A   Overcast
2:15 AM 52.9 °F 30.9 °F 43% 30.03 in 10.0 mi South 10.4 mph - N/A   Overcast
2:35 AM 53.1 °F 30.7 °F 43% 30.02 in 10.0 mi South 9.2 mph - N/A   Overcast
2:55 AM 53.2 °F 30.6 °F 42% 30.02 in 10.0 mi South 10.4 mph - N/A   Overcast
3:15 AM 53.6 °F 30.4 °F 41% 30.02 in 10.0 mi South 8.1 mph - N/A   Overcast
3:35 AM 53.8 °F 30.9 °F 42% 30.02 in 10.0 mi South 9.2 mph - N/A   Overcast
3:55 AM 53.8 °F 31.5 °F 43% 30.01 in 10.0 mi South 6.9 mph - N/A   Overcast
4:15 AM 54.1 °F 32.4 °F 44% 30.01 in 10.0 mi South 9.2 mph - N/A   Overcast
4:35 AM 54.7 °F 33.6 °F 45% 30.01 in 10.0 mi South 8.1 mph - N/A   Overcast
4:55 AM 54.9 °F 34.9 °F 47% 30.01 in 10.0 mi South 10.4 mph - N/A Rain Light Rain
5:15 AM 55.0 °F 36.3 °F 49% 30.00 in 10.0 mi South 10.4 mph - N/A   Overcast
5:35 AM 53.8 °F 39.6 °F 59% 30.00 in 10.0 mi South 8.1 mph - N/A Rain Light Rain
5:55 AM 52.7 °F 41.5 °F 66% 30.00 in 10.0 mi South 8.1 mph 17.3 mph N/A   Overcast
6:15 AM 54.0 °F 41.7 °F 63% 29.99 in 10.0 mi South 10.4 mph 18.4 mph N/A   Overcast
6:35 AM 55.0 °F 43.2 °F 64% 29.99 in 10.0 mi South 10.4 mph - N/A   Overcast
6:55 AM 55.8 °F 44.8 °F 67% 30.00 in 10.0 mi South 11.5 mph 17.3 mph N/A Rain Light Rain
7:15 AM 55.0 °F 46.4 °F 73% 29.99 in 7.0 mi South 10.4 mph 16.1 mph 0.02 in Rain Rain
7:35 AM 54.3 °F 47.5 °F 78% 29.99 in 10.0 mi South 10.4 mph 16.1 mph 0.02 in   Overcast
7:55 AM 55.4 °F 48.2 °F 77% 30.00 in 10.0 mi SSW 11.5 mph 18.4 mph 0.02 in Rain Light Rain
8:15 AM 55.0 °F 49.1 °F 80% 30.00 in 7.0 mi South 12.7 mph 20.7 mph 0.02 in Rain Light Rain
8:35 AM 54.5 °F 49.5 °F 83% 30.01 in 10.0 mi SSW 8.1 mph - 0.02 in Rain Rain
8:55 AM 54.9 °F 50.0 °F 84% 30.01 in 10.0 mi South 9.2 mph - 0.02 in   Overcast
9:15 AM 56.3 °F 50.2 °F 80% 30.01 in 10.0 mi SSW 16.1 mph 21.9 mph N/A   Overcast
9:35 AM 57.4 °F 50.4 °F 77% 30.01 in 10.0 mi SSW 11.5 mph 23.0 mph N/A   Overcast
9:55 AM 58.3 °F 50.7 °F 76% 30.01 in 10.0 mi SSW 10.4 mph 19.6 mph N/A   Overcast
10:15 AM 58.6 °F 50.5 °F 74% 30.01 in 10.0 mi SSW 10.4 mph - N/A   Overcast
10:35 AM 58.8 °F 50.9 °F 75% 30.00 in 10.0 mi SSW 8.1 mph - N/A   Overcast
10:55 AM 59.9 °F 51.4 °F 74% 29.99 in 10.0 mi SSW 9.2 mph 18.4 mph N/A   Overcast
11:15 AM 61.2 °F 52.2 °F 72% 29.98 in 10.0 mi SSW 10.4 mph 19.6 mph N/A   Overcast
11:35 AM 62.2 °F 52.7 °F 71% 29.97 in 10.0 mi SW 17.3 mph 23.0 mph N/A   Overcast
11:55 AM 63.0 °F 52.9 °F 70% 29.97 in 10.0 mi SSW 19.6 mph 27.6 mph N/A   Overcast
12:15 PM 63.0 °F 52.3 °F 68% 29.96 in 10.0 mi SSW 13.8 mph 23.0 mph N/A   Overcast
12:35 PM 62.8 °F 52.3 °F 69% 29.95 in 10.0 mi SSW 11.5 mph 18.4 mph N/A   Overcast
12:55 PM 63.3 °F 52.5 °F 68% 29.94 in 10.0 mi SSW 12.7 mph 21.9 mph N/A   Overcast
1:15 PM 63.0 °F 52.9 °F 70% 29.95 in 10.0 mi SSW 15.0 mph 25.3 mph N/A   Overcast
1:55 PM 61.5 °F 53.2 °F 74% 29.94 in 10.0 mi SSW 12.7 mph 20.7 mph N/A   Overcast
2:15 PM 61.0 °F 53.6 °F 77% 29.94 in 10.0 mi South 10.4 mph 21.9 mph N/A   Overcast
2:35 PM 60.6 °F 53.8 °F 78% 29.94 in 10.0 mi SSW 10.4 mph 19.6 mph N/A   Overcast
2:55 PM 60.3 °F 53.6 °F 79% 29.95 in 10.0 mi SSW 13.8 mph 17.3 mph N/A   Overcast
3:15 PM 60.3 °F 53.6 °F 79% 29.95 in 10.0 mi SSW 9.2 mph - N/A   Overcast
3:35 PM 60.6 °F 53.6 °F 78% 29.96 in 10.0 mi SSW 9.2 mph 16.1 mph N/A   Overcast
3:55 PM 60.8 °F 53.6 °F 77% 29.96 in 10.0 mi SSW 8.1 mph - N/A   Overcast
4:15 PM 60.8 °F 53.6 °F 77% 29.96 in 10.0 mi SSW 9.2 mph - N/A   Overcast
4:35 PM 60.8 °F 53.8 °F 78% 29.96 in 10.0 mi SSW 8.1 mph - N/A   Overcast
4:55 PM 60.8 °F 54.0 °F 78% 29.95 in 10.0 mi South 9.2 mph - N/A   Overcast
5:15 PM 61.0 °F 54.0 °F 78% 29.95 in 10.0 mi South 9.2 mph - N/A   Overcast
5:35 PM 61.2 °F 54.1 °F 78% 29.96 in 10.0 mi South 10.4 mph 16.1 mph N/A   Overcast
5:55 PM 61.7 °F 54.5 °F 77% 29.96 in 10.0 mi SSW 11.5 mph 19.6 mph N/A   Overcast
6:15 PM 61.9 °F 54.9 °F 78% 29.96 in 10.0 mi SSW 12.7 mph 23.0 mph N/A   Overcast
6:35 PM 62.1 °F 55.4 °F 79% 29.96 in 10.0 mi SSW 11.5 mph 17.3 mph N/A   Overcast
6:55 PM 62.2 °F 55.6 °F 79% 29.96 in 10.0 mi SSW 10.4 mph 17.3 mph N/A   Overcast
7:15 PM 62.2 °F 55.6 °F 79% 29.97 in 10.0 mi SSW 11.5 mph 16.1 mph N/A   Overcast
7:35 PM 62.2 °F 55.4 °F 78% 29.96 in 10.0 mi SSW 9.2 mph 17.3 mph N/A   Overcast
7:55 PM 62.1 °F 55.4 °F 79% 29.96 in 10.0 mi SSW 10.4 mph 18.4 mph N/A   Overcast
8:15 PM 62.1 °F 55.2 °F 78% 29.96 in 10.0 mi SSW 10.4 mph - N/A   Overcast
8:35 PM 61.9 °F 55.0 °F 78% 29.96 in 10.0 mi South 9.2 mph 17.3 mph N/A   Overcast
8:55 PM 61.9 °F 54.9 °F 78% 29.95 in 10.0 mi South 11.5 mph 18.4 mph N/A   Overcast
9:15 PM 62.1 °F 54.9 °F 77% 29.95 in 10.0 mi SSW 11.5 mph 18.4 mph N/A   Overcast
9:35 PM 62.1 °F 54.9 °F 77% 29.94 in 10.0 mi South 11.5 mph 18.4 mph N/A   Overcast
9:55 PM 61.9 °F 54.7 °F 77% 29.93 in 10.0 mi SSW 11.5 mph 17.3 mph N/A   Overcast
10:15 PM 61.7 °F 54.7 °F 78% 29.93 in 10.0 mi South 9.2 mph 17.3 mph N/A   Overcast
10:35 PM 61.5 °F 54.5 °F 78% 29.92 in 10.0 mi South 9.2 mph - N/A   Mostly Cloudy
10:55 PM 61.2 °F 54.5 °F 79% 29.92 in 10.0 mi South 11.5 mph 17.3 mph N/A   Mostly Cloudy
11:15 PM 61.2 °F 54.5 °F 79% 29.92 in 10.0 mi South 11.5 mph 17.3 mph N/A   Overcast
11:35 PM 61.3 °F 54.5 °F 78% 29.91 in 10.0 mi South 11.5 mph 18.4 mph N/A   Mostly Cloudy
11:55 PM 61.3 °F 54.5 °F 78% 29.91 in 10.0 mi South 9.2 mph - N/A   Mostly Cloudy